[[{"header":{"parameterUnit":"m.s-1","parameterCategory":1,"la1":30.2991,"la2":30.254,"lo1":-89.0895,"lo2":-89.0444,"dy":0.0017,"dx":0.0017,"nx":28,"ny":28,"refTime":"2024-04-12T03:00:00:Z","depth":0,"parameterNumber":2,"parameterNumberName":"U-component_of_WINDS"},"data":[0,0,0,0,0,0,0,0,0,0,0,0,0,0,0,0,0,0,0,0,0,0,0,0,0,0,0,0,0,0,0,0,0,0,0,0,0,0,0,0,0,0,0,0,0,0,0,0,0,0,0,0,0,0,0,0,0,0,1.7181,1.7182,0,1.7298,1.7299,1.7301,1.7323,1.7322,1.7321,1.732,1.744,1.7444,1.7448,0,0,0,0,0,0,0,0,0,0,0,0,0,1.6975,1.6978,1.7181,1.7182,1.7184,1.7298,1.7299,1.7301,1.7323,1.7322,1.7321,1.732,1.7439,1.7443,1.7448,0,0,0,0,0,0,0,0,0,0,0,0,0,1.7075,1.6979,1.7181,1.7209,1.7212,1.7297,1.7299,1.7301,1.7324,1.7322,1.7321,1.732,1.7437,1.7443,1.7449,1.7514,0,0,1.7468,1.747,0,0,0,0,0,0,0,0,1.7069,1.7083,1.7203,1.7207,1.7211,1.7295,1.7271,1.7373,1.7324,1.7281,1.732,1.7319,1.7393,1.7402,1.7427,1.752,1.7525,1.7468,1.7472,1.7474,1.7476,0,0,0,0,0,0,0,1.7062,1.7078,1.7227,1.7205,1.721,1.7215,1.7228,1.729,1.7343,1.7285,1.7287,1.73,1.7395,1.7421,1.743,1.7527,1.7468,1.7473,1.7477,1.7479,1.7676,1.7677,0,0,0,0,0,0,1.7051,1.7072,1.7223,1.7231,1.7135,1.722,1.7234,1.7269,1.7343,1.7353,1.7302,1.7301,1.7412,1.7423,1.7435,1.7514,1.7474,1.748,1.7483,1.7674,1.7676,1.7678,0,0,0,0,0,0,1.7046,1.7064,1.7219,1.7152,1.7172,1.7225,1.7264,1.7272,1.7299,1.7355,1.7365,1.7319,1.7411,1.7426,1.7494,1.7518,1.7483,1.7488,1.7672,1.7675,1.7677,1.7674,0,0,0,0,0,0,1.704,1.7062,1.7088,1.7152,1.7175,1.7276,1.7266,1.7276,1.731,1.731,1.7374,1.7384,1.7411,1.7484,1.75,1.7526,1.7493,1.767,1.7673,1.7676,1.7672,1.7676,1.7679,0,0,0,0,0,1.7033,1.7083,1.7089,1.7108,1.7209,1.7278,1.7291,1.7322,1.7311,1.7337,1.7373,1.7382,1.7513,1.7491,1.7509,1.7537,1.7669,1.7672,1.7676,1.767,1.7675,1.7679,0,0,0,0,0,0,1.7021,1.7092,1.71,1.7173,1.7219,1.7281,1.7315,1.7326,1.7376,1.7375,1.741,1.7425,1.749,1.7521,1.7494,1.7603,1.759,1.7597,1.758,1.7585,1.7588,1.7579,1.7498,0,0,0,0,0,1.7027,1.7077,1.7137,1.7195,1.7218,1.7262,1.7294,1.7313,1.7362,1.7382,1.7423,1.747,1.7522,1.7555,1.7606,1.7677,1.769,1.7705,1.7708,1.7711,1.7716,1.7753,1.7759,1.7689,1.7689,1.7689,0,0,1.7039,1.7084,1.7114,1.7194,1.7232,1.7282,1.7279,1.7333,1.737,1.739,1.7456,1.7487,1.7542,1.7611,1.7643,1.7638,1.7738,1.7715,1.7717,1.7721,1.7757,1.7764,1.777,1.7692,1.7691,1.7691,0,0,1.7087,1.7128,1.7179,1.7217,1.7275,1.7304,1.7316,1.7377,1.7398,1.7465,1.748,1.7525,1.7614,1.7652,1.7683,1.7743,1.7752,1.7759,1.7777,1.7813,1.7818,1.7823,1.7843,1.7849,1.7764,1.7764,1.7764,0,1.7096,1.7173,1.7205,1.7257,1.7291,1.7311,1.7363,1.7398,1.7469,1.7492,1.7486,1.7596,1.7635,1.7711,1.7725,1.7751,1.7765,1.7751,1.7815,1.782,1.7825,1.7844,1.7852,1.7765,1.7765,1.7765,1.7765,0,1.7178,1.7231,1.7266,1.7334,1.7371,1.7424,1.7462,1.7497,1.7512,1.7542,1.7608,1.7655,1.7714,1.7734,1.7751,1.7812,1.7807,1.7808,1.7796,1.7832,1.785,1.7858,1.7765,1.7765,1.7765,1.7765,0,0,1.7223,1.7306,1.7318,1.7348,1.7412,1.7453,1.7506,1.7564,1.7591,1.7639,1.7683,1.7757,1.7757,1.7792,1.7813,1.7844,1.7886,1.784,1.7842,1.7845,1.7954,1.7952,1.796,1.7893,1.7894,1.7895,1.7948,0,1.7277,1.7371,1.74,1.7478,1.7526,1.7545,1.7591,1.7634,1.7663,1.7707,1.7739,1.7789,1.7787,1.7808,1.784,1.7874,1.7908,1.7871,1.7932,1.7934,1.7916,1.797,1.7969,1.8017,1.7956,1.7957,1.7958,0,1.7353,1.7401,1.7484,1.754,1.7561,1.7601,1.7656,1.7698,1.7747,1.7766,1.7804,1.7822,1.7875,1.7861,1.7935,1.7909,1.7936,1.7956,1.7959,1.7964,1.7947,1.7975,1.8033,1.8039,1.797,1.7969,1.7968,0,1.7374,1.746,1.752,1.7545,1.7613,1.764,1.7669,1.7717,1.775,1.7797,1.7818,1.7871,1.79,1.794,1.7971,1.7959,1.8042,1.803,1.8057,1.8056,1.8073,1.8071,1.8134,1.8093,1.8093,1.8092,1.8092,0,1.7431,1.748,1.753,1.7567,1.7622,1.7655,1.7708,1.7738,1.778,1.7822,1.7843,1.7882,1.7921,1.7965,1.799,1.8046,1.8059,1.8074,1.808,1.8072,1.8069,1.8089,1.8085,1.8094,1.8094,1.8094,1.8093,0,1.7463,1.7499,1.7565,1.7623,1.7639,1.7677,1.7726,1.7761,1.779,1.7843,1.7857,1.7902,1.7955,1.799,1.8057,1.8074,1.8134,1.814,1.8117,1.8119,1.8143,1.814,1.8219,1.823,1.8183,1.8184,1.8184,0,1.7496,1.7534,1.7596,1.7625,1.7655,1.7702,1.7735,1.7768,1.7801,1.7859,1.7887,1.7941,1.7985,1.8068,1.8106,1.8157,1.8163,1.8188,1.8171,1.8161,1.8161,1.8158,1.8161,1.819,1.819,1.819,1.8191,0,1.755,1.7566,1.7612,1.7664,1.7702,1.7745,1.7788,1.781,1.7851,1.7887,1.794,1.7975,1.8043,1.8095,1.8149,1.8179,1.8191,1.8195,1.8204,1.8195,1.8179,1.8186,1.8122,1.8193,1.8193,1.8193,1.8193,1.8193,1.7583,1.7617,1.7665,1.7715,1.775,1.7789,1.7825,1.7858,1.7903,1.796,1.7978,1.8032,1.8079,1.8153,1.8183,1.8226,1.8224,1.8236,1.8239,1.8242,1.824,1.8173,1.8236,1.8236,1.8236,1.8236,1.8236,0,1.7636,1.7667,1.7713,1.7772,1.7811,1.7819,1.7867,1.7898,1.7946,1.7989,1.8032,1.8092,1.8142,1.8184,1.8236,1.8262,1.8269,1.8274,1.8272,1.8278,1.8241,1.8227,1.8268,1.8268,1.8268,1.8268,1.8268,1.8268,1.7668,1.7725,1.7746,1.782,1.7851,1.7905,1.793,1.7966,1.8,1.8066,1.8108,1.8134,1.8176,1.8231,1.8277,1.8288,1.8305,1.8309,1.8321,1.8285,1.8281,1.8277,1.8265,1.8313,1.8313,1.8354,1.8355,1.8355]},{"header":{"parameterUnit":"m.s-1","parameterCategory":1,"la1":30.2991,"la2":30.254,"lo1":-89.0895,"lo2":-89.0444,"dy":0.0017,"dx":0.0017,"nx":28,"ny":28,"refTime":"2024-04-12T03:00:00:Z","depth":0,"parameterNumber":3,"parameterNumberName":"V-component_of_WINDS"},"data":[0,0,0,0,0,0,0,0,0,0,0,0,0,0,0,0,0,0,0,0,0,0,0,0,0,0,0,0,0,0,0,0,0,0,0,0,0,0,0,0,0,0,0,0,0,0,0,0,0,0,0,0,0,0,0,0,0,0,3.5496,3.5496,0,3.5497,3.5497,3.5497,3.5423,3.5421,3.5419,3.5417,3.5419,3.5421,3.5422,0,0,0,0,0,0,0,0,0,0,0,0,0,3.543,3.5432,3.5496,3.5496,3.5496,3.5497,3.5497,3.5497,3.5423,3.5421,3.5419,3.5416,3.5418,3.542,3.5423,0,0,0,0,0,0,0,0,0,0,0,0,0,3.5448,3.5432,3.5496,3.546,3.5456,3.5497,3.5497,3.5497,3.5424,3.5421,3.5418,3.5415,3.5417,3.542,3.5423,3.5499,0,0,3.5431,3.5433,0,0,0,0,0,0,0,0,3.5447,3.545,3.5465,3.5462,3.5459,3.5457,3.5474,3.5498,3.5425,3.5436,3.5417,3.5414,3.5434,3.5435,3.5442,3.5499,3.5499,3.5432,3.5433,3.5435,3.5435,0,0,0,0,0,0,0,3.5446,3.545,3.5496,3.5465,3.5461,3.5443,3.5442,3.5478,3.5452,3.5435,3.543,3.5431,3.5432,3.5439,3.5441,3.5499,3.5432,3.5434,3.5436,3.5437,3.5615,3.5618,0,0,0,0,0,0,3.5449,3.5449,3.5496,3.5496,3.5445,3.5446,3.5445,3.546,3.5451,3.5447,3.5433,3.5427,3.5436,3.5438,3.5441,3.5527,3.5435,3.5437,3.5439,3.5612,3.5616,3.5619,0,0,0,0,0,0,3.5448,3.5454,3.5496,3.5471,3.5475,3.5451,3.5468,3.5462,3.5469,3.5449,3.5444,3.5446,3.5434,3.5437,3.5484,3.5526,3.5438,3.5441,3.5609,3.5613,3.5618,3.5701,0,0,0,0,0,0,3.5447,3.5454,3.5483,3.5473,3.5477,3.554,3.5471,3.5464,3.5474,3.5467,3.546,3.5456,3.5432,3.548,3.5487,3.5528,3.5443,3.5605,3.5611,3.5616,3.5694,3.5708,3.572,0,0,0,0,0,3.5445,3.5508,3.5485,3.5491,3.5513,3.5543,3.5545,3.5515,3.5478,3.5506,3.5493,3.5456,3.5521,3.5486,3.5493,3.5535,3.5602,3.5609,3.5616,3.5689,3.5705,3.5719,0,0,0,0,0,0,3.5525,3.5506,3.5481,3.5542,3.5544,3.553,3.5565,3.5534,3.5548,3.554,3.5502,3.5502,3.5554,3.555,3.5511,3.5607,3.5555,3.5563,3.5608,3.5623,3.5636,3.5635,3.5445,0,0,0,0,0,3.555,3.5576,3.5558,3.5614,3.5616,3.5591,3.5603,3.5579,3.558,3.5581,3.5572,3.5574,3.5594,3.5609,3.5627,3.5694,3.569,3.5726,3.5739,3.5749,3.5757,3.5789,3.5805,3.5642,3.5642,3.5642,0,0,3.5602,3.5594,3.5613,3.5629,3.5629,3.5656,3.5592,3.5624,3.5644,3.5586,3.5629,3.5623,3.5623,3.568,3.5704,3.5677,3.5801,3.5758,3.5767,3.5768,3.5798,3.5813,3.5827,3.5647,3.5646,3.5645,0,0,3.5709,3.5707,3.5752,3.5752,3.5751,3.5733,3.5744,3.5734,3.5727,3.577,3.5726,3.5749,3.5786,3.5787,3.5792,3.5898,3.5864,3.5905,3.597,3.6003,3.6015,3.6026,3.6062,3.6076,3.5913,3.5913,3.5913,0,3.5773,3.5812,3.5779,3.5813,3.5821,3.5769,3.5814,3.5815,3.5821,3.5827,3.5797,3.584,3.5837,3.5892,3.5918,3.5925,3.5935,3.5905,3.6016,3.6027,3.6037,3.6071,3.6084,3.5918,3.5918,3.5917,3.5917,0,3.589,3.5918,3.5955,3.5959,3.5971,3.6011,3.5983,3.5999,3.5974,3.5959,3.6002,3.5997,3.6011,3.6023,3.6,3.6074,3.6057,3.6023,3.5969,3.6058,3.6089,3.6101,3.5925,3.5923,3.5922,3.5921,0,0,3.6049,3.6033,3.6047,3.6047,3.6042,3.6062,3.6099,3.6112,3.6126,3.6131,3.616,3.6191,3.6158,3.6164,3.6141,3.6169,3.6251,3.613,3.613,3.6151,3.633,3.6355,3.6371,3.6229,3.6231,3.6233,3.6329,0,3.6152,3.6212,3.6182,3.6246,3.627,3.622,3.6252,3.6251,3.6238,3.6257,3.6242,3.6264,3.622,3.6223,3.6249,3.6235,3.6286,3.6228,3.6254,3.6255,3.6253,3.6387,3.6414,3.6505,3.6341,3.6344,3.6345,0,3.6279,3.6288,3.6354,3.6341,3.635,3.6379,3.6387,3.6406,3.6404,3.6392,3.6399,3.6368,3.6402,3.6349,3.6395,3.6356,3.6365,3.636,3.6362,3.6362,3.6304,3.6389,3.6534,3.6547,3.6364,3.6363,3.6361,0,3.6386,3.6414,3.6456,3.6459,3.6446,3.6466,3.6462,3.6457,3.6466,3.6474,3.6479,3.6492,3.6498,3.6508,3.6481,3.6446,3.653,3.6476,3.652,3.6521,3.6539,3.6538,3.6686,3.6548,3.6548,3.6548,3.6547,0,3.6502,3.6544,3.6503,3.653,3.6574,3.6539,3.6585,3.6575,3.6571,3.6593,3.6552,3.6574,3.6538,3.6557,3.6536,3.6576,3.6579,3.657,3.6564,3.6573,3.6574,3.6577,3.6569,3.6551,3.655,3.655,3.6549,0,3.6628,3.6603,3.6645,3.6629,3.6626,3.6659,3.6645,3.6668,3.6651,3.6681,3.6685,3.666,3.668,3.6654,3.6671,3.6657,3.6711,3.6696,3.6711,3.6706,3.6751,3.6747,3.6905,3.6923,3.6775,3.6777,3.6778,0,3.6703,3.6734,3.672,3.6731,3.6729,3.6749,3.6757,3.6724,3.6735,3.6733,3.6756,3.6772,3.6783,3.6816,3.6799,3.6812,3.6796,3.685,3.6798,3.6805,3.6794,3.6792,3.6794,3.6861,3.6863,3.6864,3.6865,0,3.6839,3.6824,3.6838,3.6847,3.6857,3.6863,3.6866,3.6878,3.6843,3.6857,3.6875,3.6883,3.69,3.6916,3.6924,3.6919,3.6886,3.6882,3.6893,3.6901,3.6908,3.6903,3.6739,3.6878,3.6877,3.6876,3.6875,3.6875,3.694,3.6964,3.6957,3.6973,3.6971,3.6974,3.6994,3.6979,3.6994,3.7004,3.6983,3.7007,3.7002,3.7009,3.7008,3.7026,3.7002,3.7018,3.7022,3.7026,3.7031,3.6907,3.7027,3.7027,3.7027,3.7026,3.7026,0,3.7071,3.7064,3.7079,3.7083,3.7095,3.7062,3.7063,3.7075,3.7096,3.7094,3.7105,3.7125,3.714,3.7124,3.7135,3.7153,3.7138,3.7157,3.7154,3.7153,3.7053,3.7042,3.7168,3.7168,3.7168,3.7168,3.7168,3.7168,3.7141,3.7179,3.7163,3.7199,3.7191,3.7212,3.7215,3.7217,3.7215,3.724,3.7251,3.724,3.7232,3.7243,3.7254,3.7249,3.7254,3.7278,3.7268,3.7175,3.716,3.7147,3.7136,3.728,3.7281,3.7366,3.7367,3.7368]}]]